Back to Previous

Regional Weather Roundup

000
ASUS44 KLZK 251805
RWRLZK

WEATHER ROUNDUP FOR ARKANSAS
NATIONAL WEATHER SERVICE LITTLE ROCK AR
100 PM CDT MON JUL 25 2016

NOTE: "FAIR" INDICATES FEW OR NO CLOUDS BELOW 12,000 FEET WITH NO
SIGNIFICANT WEATHER AND/OR OBSTRUCTIONS TO VISIBILITY.

ARZ001-003-010-029-251900-
NORTHWEST ARKANSAS
  
CITY           SKY/WX    TMP DP  RH WIND       PRES   REMARKS
FAYETTEVILLE   LGT RAIN  74  74 100 E7        30.07F FOG              
6HR MIN TEMP:  72; 6HR MAX TEMP:  80; 6HR PCP:  0.50;                

FORT SMITH     CLOUDY    92  73  53 N17       29.99F HX 100           
6HR MIN TEMP:  76; 6HR MAX TEMP:  92;                                

HARRISON       PTSUNNY   79  72  79 NW3       30.10F                  
6HR MIN TEMP:  72; 6HR MAX TEMP:  82;                                

BENTONVILLE    CLOUDY    75  68  78 E9        30.09F                  
6HR MIN TEMP:  75; 6HR MAX TEMP:  79; 6HR PCP:  0.23;                

ROGERS         CLOUDY    75  70  84 E13       30.09F                  
6HR MIN TEMP:  75; 6HR MAX TEMP:  78;                                

SILOAM SPGS    CLOUDY    79  66  65 E6        30.08F                  
6HR MIN TEMP:  75; 6HR MAX TEMP:  84;                                

HIGHFILL       CLOUDY    78  73  84 E8        30.09F                  
6HR MIN TEMP:  77; 6HR MAX TEMP:  83; 6HR PCP:  0.12;                

SPRINGDALE     PTSUNNY   75  73  94 E6        30.11F                  
$$

ARZ004-005-016-251900-
NORTH CENTRAL ARKANSAS
  
CITY           SKY/WX    TMP DP  RH WIND       PRES   REMARKS
BATESVILLE     SUNNY     90  72  55 W6        30.01F HX  96           
6HR MIN TEMP:  73; 6HR MAX TEMP:  90;                                

FLIPPIN        CLOUDY    84  72  65 N7        30.03F HX  89           
6HR MIN TEMP:  73; 6HR MAX TEMP:  86;                                

MTN HOME       CLOUDY    82  75  79 CALM      30.05F HX  89           
6HR MIN TEMP:  74; 6HR MAX TEMP:  83;                                

$$

ARZ040-041-251900-
WEST CENTRAL ARKANSAS
  
CITY           SKY/WX    TMP DP  RH WIND       PRES   REMARKS
MENA           MOSUNNY   93  73  52 N5        30.01F HX 102           
MOUNT IDA      CLOUDY    93  72  50 VRB3      29.99F HX 101           
6HR MIN TEMP:  72; 6HR MAX TEMP:  94;                                

$$

ARZ009-017-025-026-028-251900-
NORTHEAST ARKANSAS
  
CITY           SKY/WX    TMP DP  RH WIND       PRES   REMARKS
CORNING          N/A     82  81  94 S5        30.01S HX  95           
JONESBORO      PTSUNNY   90  78  68 SW8       29.99F HX 104           
6HR MIN TEMP:  78; 6HR MAX TEMP:  90;                                

NEWPORT        SUNNY     94  74  52 CALM      30.01F HX 104           
6HR MIN TEMP:  77; 6HR MAX TEMP:  94;                                

WALNUT RIDGE   CLOUDY    91  73  55 W8        29.98F HX 100           
6HR MIN TEMP:  77; 6HR MAX TEMP:  91; 6HR PCP:  0.04;                

BLYTHEVILLE    MOSUNNY   91  79  67 SW9       30.00F HX 107           
6HR MIN TEMP:  79; 6HR MAX TEMP:  91;                                

NW BLYTHEVILLE PTSUNNY   91  79  66 W7        29.99F HX 107           
$$

ARZ022-023-033-042-044-251900-
CENTRAL ARKANSAS
  
CITY           SKY/WX    TMP DP  RH WIND       PRES   REMARKS
LITTLE ROCK    MOSUNNY   94  71  47 CALM      29.99F HX 101           
6HR MIN TEMP:  78; 6HR MAX TEMP:  94;                                

N LITTLE ROCK    N/A     90  75  59 CALM      29.97F HX 100           
6HR MIN TEMP:  75; 6HR MAX TEMP:  90;                                

JACKSONVILLE   PTSUNNY   92  73  52 VRB1      29.99F HX 100           
6HR MIN TEMP:  76; 6HR MAX TEMP:  92;                                

SEARCY         CLOUDY    93  75  55 VRB3      30.01F HX 104           
6HR MIN TEMP:  74; 6HR MAX TEMP:  93;                                

HOT SPRINGS    SUNNY     91  72  53 VRB3      30.00F HX  98           
6HR MIN TEMP:  73; 6HR MAX TEMP:  93;                                

RUSSELLVILLE   MOSUNNY   85  73  67 NE6       30.00F HX  91           
6HR MIN TEMP:  72; 6HR MAX TEMP:  86; 6HR PCP: TRACE;                

$$

ARZ036-251900-
EAST ARKANSAS
  
CITY           SKY/WX    TMP DP  RH WIND       PRES   REMARKS
WEST MEMPHIS   MOSUNNY   90  76  63 VRB3      29.99F HX 101           
6HR MIN TEMP:  78; 6HR MAX TEMP:  90;                                

$$

ARZ050-053-066-070-073-251900-
SOUTHWEST ARKANSAS
  
CITY           SKY/WX    TMP DP  RH WIND       PRES   REMARKS
CAMDEN         MOSUNNY   93  70  46 N3        29.98F HX  99           
TEXARKANA      SUNNY     92  72  51 NE7       29.98F HX  99           
6HR MIN TEMP:  72; 6HR MAX TEMP:  92;                                

EL DORADO      SUNNY     92  69  47 VRB3      29.99F HX  97           
6HR MIN TEMP:  72; 6HR MAX TEMP:  92;                                

DE QUEEN       CLOUDY    91  73  55 SE3       29.96F HX  99           
6HR MIN TEMP:  73; 6HR MAX TEMP:  92;                                

$$

ARZ056-057-069-251900-
SOUTHEAST ARKANSAS
  
CITY           SKY/WX    TMP DP  RH WIND       PRES   REMARKS
PINE BLUFF     SUNNY     89  72  56 SW6       30.00F HX  96           
6HR MIN TEMP:  74; 6HR MAX TEMP:  90;                                

STUTTGART      SUNNY     93  72  49 SW6       30.01S HX 100           
6HR MIN TEMP:  77; 6HR MAX TEMP:  93;                                

MONTICELLO     MOSUNNY   91  75  59 CALM      29.99F HX 101           
6HR MIN TEMP:  75; 6HR MAX TEMP:  91;                                


$$


  

USA.gov is the U.S. government's official web portal to all federal, state and local government web resources and services.